Regional Weather Roundup
Issued by NWS

Home | Current Version | Previous Version | Graphics & Text | Print | Product List | Glossary On
Versions: 1 2 3 4 5 6 7 8 9 10 11 12 13 14 15 16 17 18 19 20 21 22 23 24 25 26 27 28 29 30 31 32 33 34 35 36 37 38 39 40 41 42 43 44 45 46 47 48 49 50
000
ASUS45 KTFX 311304
RWRMT
MONTANA HOURLY WEATHER ROUNDUP
NATIONAL WEATHER SERVICE GREAT FALLS MT
604 AM MST SAT JAN 31 2015

NOTE: "FAIR" INDICATES FEW OR NO CLOUDS BELOW 12000 FEET WITH NO
SIGNIFICANT WEATHER AND/OR OBSTRUCTIONS TO VISIBILITY.

* THESE STATIONS ARE NOT UNDER NWS QUALITY CONTROL. THEY DO NOT
   REPORT WEATHER SUCH AS PRECIPITATION OR FOG.

MTZ001>007-043-311400-
WEST OF THE DIVIDE
CITY           SKY/WX    TMP DP  RH WIND       PRES   REMARKS
KALISPELL      FOG       25  25 100 W3        30.11F VSB 1 3/4
MISSOULA       FOG       25  21  85 NE3       30.13F
BUTTE          MOCLDY    16  10  77 CALM      30.04S
MULLAN PASS    FOG       19  18  96 N6        30.06S VSB 3/4  WCI  11
* ANACONDA     CLOUDY    21  16  81 N7         N/A   WCI  12
* ESSEX        N/A       22  19  88 W1         N/A
* LINCOLN      N/A       15  12  88 NW3        N/A
* LOOKOUT PASS N/A       23  23 100 N4G9       N/A
* POLSON       N/A       23  22  96 N/A        N/A
* RONAN APT    MOCLDY    23  21  92 N/A        N/A
* SEELEY LAKE  N/A       12   9  88 SE2G7      N/A
* THOMP F APT  MOCLDY    23   8  52 NE3        N/A
$$

MTZ008-052>055-311400-
SOUTHWEST MONTANA
CITY           SKY/WX    TMP DP  RH WIND       PRES   REMARKS
BOZEMAN        PTCLDY    19  16  88 E3        30.03S
DILLON         MOCLDY    21  12  68 SW12      30.01F WCI   9
* W YELLOWSTON PTCLDY    -3  -8  79 N/A        N/A
* THREE FORKS  MOCLDY    19  19 100 N/A        N/A
* BOULDER HILL N/A       29  12  49 N1G8       N/A
* MONIDA PASS  N/A        6   3  87 N/A        N/A
* RAYNOLDS PAS N/A       11 -33  11 N1         N/A
* WHITEHALL    N/A       21  17  84 W5G10      N/A   WCI  14
* WISE RIVER   N/A       10   5  80 W5G10      N/A   WCI   1
$$

MTZ009>010-012-014-046-048-049-054-311400-
EAST SLOPES AND CENTRAL MONTANA
CITY           SKY/WX    TMP DP  RH WIND       PRES   REMARKS
CUT BANK       LGT SNOW  21  19  92 N22       30.09R VSB 2 1/2 WCI   5
GREAT FALLS    CLOUDY    27  25  92 NW14      30.06R WCI  16
HELENA         CLOUDY    28  23  81 NE7       30.03F WCI  21
MALMSTROM AFB  CLOUDY    27  27 100 NW8       30.08R WCI  19
* DEARBORN     N/A       30  22  72 VRB12G17    N/A   WCI  20
* EAST GLACIER N/A       23  21  92 NE17       N/A   WCI   9
* MONARCH      N/A       24  17  75 NW9G14     N/A   WCI  14
* PENDROY      N/A       23  23 100 N17G22     N/A   WCI   9
* ROGERS PASS  N/A       27  16  63 S7G14      N/A   WCI  19
* SWEET GRASS  N/A       19  19 100 VRB16G22    N/A   WCI   4
$$

MTZ011-013-016-021-035-040-045-047-050-051-311400-
NORTH CENTRAL MONTANA
CITY           SKY/WX    TMP DP  RH WIND       PRES   REMARKS
HAVRE          FOG       27  25  92 E21       30.06R VSB 3    WCI  13
LEWISTOWN      CLOUDY    28  19  69 NW10      29.96R WCI  19
* N BAR RANCH  CLEAR     36  14  40 W13G21    29.92F WCI  27
* CHESTER      N/A       26  24  92 NE5G10     N/A   WCI  20
* DENTON       N/A       28  26  92 NW10G18    N/A   WCI  19
* GEYSER       N/A       25  24  96 W19G26     N/A   WCI  11
* JUDITH GAP   N/A       30  18  61 NW12       N/A   WCI  20
* LOMA         N/A       28  26  92 W8         N/A   WCI  20
$$

MTZ017>020-022>027-061-062-311400-
NORTHEAST MONTANA
CITY           SKY/WX    TMP DP  RH WIND       PRES   REMARKS
GLASGOW        FOG       21  19  92 E24G35    30.08S WCI   4
GLENDIVE       CLOUDY    25  23  92 E18       30.08R VSB 2    WCI  11
JORDAN         MOCLDY    27  27 100 E13       29.99R WCI  16
SIDNEY         CLOUDY    25  21  85 NE9       30.18R VSB 3    WCI  16
WOLF POINT     CLOUDY    25  21  85 E20G25    30.14S WCI  11
* BEAVER HILL  N/A       22  21  96 E17G22     N/A   WCI   8
* CIRCLE       N/A       24  23  96 NE15G21    N/A   WCI  11
* LINDSAY DVD  N/A       23  21  92 E16        N/A   WCI  10
* NAVAJO       N/A       15  13  92 E13G19     N/A   WCI   1
* SACO         N/A       23  20  88 NE18G27    N/A   WCI   9
$$

MTZ028>042-056>058-311400-
SOUTHCENTRAL AND SOUTHEAST MONTANA
CITY           SKY/WX    TMP DP  RH WIND       PRES   REMARKS
BAKER          FOG       27  25  92 E17       30.02S VSB 1 3/4 WCI  14
BILLINGS       MOCLDY    28  21  75 SW14      29.93S WCI  17
LIVINGSTON     PTCLDY    28  16  61 NW20      29.99R WCI  15
MILES CITY     PTCLDY    21  19  92 NE14      29.97F WCI   8
* LAUREL APT   MOCLDY    25  10  53 N/A        N/A
* ROUNDUP APT  MOCLDY    27  16  63 N/A        N/A
* ALZADA       N/A       24  21  88 E1         N/A
* HYSHAM       N/A       32  24  72 W6         N/A   WCI  26
* LAME DEER    N/A       33  18  54 S6         N/A   WCI  27
* REED POINT   N/A       18  17  96 SE2        N/A
* ROSCOE HILL  N/A       27   0  31 N5G12      N/A   WCI  21
$$

REGIONAL REPORTS...DAKOTAS
CITY           SKY/WX    TMP DP  RH WIND       PRES   REMARKS
WILLISTON      CLOUDY    19  16  88 E17       30.21R WCI   4
DICKINSON      FOG       21  19  92 E16       30.10R VSB 3/4  WCI   7
CROSBY         LGT SNOW   9   7  91 E15G24    30.29R WCI  -8
WATFORD CITY   CLOUDY    19  18  96 E16G22    30.16R WCI   4
BISMARCK       CLOUDY    19  18  96 E16       30.23R WCI   4
GRAND FORKS    CLOUDY     7  -2  66 N15       30.39R WCI -10
FARGO          CLOUDY    12   5  73 N22       30.31R WCI  -7
BUFFALO SD     MOCLDY    25  21  85 E15       29.95F WCI  13
RAPID CITY     CLOUDY    28  21  75 CALM      30.02R
$$

REGIONAL REPORTS...WYOMING/IDAHO/WASHINGTON
CITY           SKY/WX    TMP DP  RH WIND       PRES   REMARKS
GILLETTE       MOCLDY    30  21  69 S8        29.91F WCI  22
SHERIDAN       CLOUDY    27  19  72 W5        29.92F WCI  21
CODY           PTCLDY    21  16  81 SE6       29.93F WCI  13
YELLOWSTONE LA MOCLDY   -11 -18  70 CALM      30.03F
SALMON         CLOUDY    27  19  72 CALM      30.21R
MULLAN PASS    FOG       19  18  96 N6        30.06S VSB 3/4  WCI  11
SAND POINT     CLOUDY    32  28  85 S6        30.22S WCI  26
SPOKANE        LGT SNOW  30  28  92 SW6       30.24R WCI  24
$$

REGIONAL REPORTS...ALBERTA
CITY           SKY/WX    TMP DP  RH WIND       PRES   REMARKS
MEDICINE HAT   LGT SNOW  16  14  92 NE15G25   30.24R VSB 3/4  WCI   1
$$

REGIONAL REPORTS...SASKATCHEWAN
CITY           SKY/WX    TMP DP  RH WIND       PRES   REMARKS
SWIFT CURRENT  LGT SNOW   7   3  83 E21G30    30.24R WCI -13

$$




USA.gov is the U.S. government's official web portal to all federal, state and local government web resources and services.